AEPEX

导读

AEPEX(NORAD编号68506)是由美国航天公司APEX开发的卫星,APEX成立于2022年,专注于100-500千克级标准化卫星平台研发,核心团队来自SpaceX,拥有深厚航天器设计经验。该卫星作为APEX首批入轨任务之一,于2024年通过SpaceX拼车发射计划成功进入预定轨道,基于APEX首款Aries卫星平台打造,主要为商业或政府用户提供空间技术验证服务,展示了模块化卫星平台的高适配性与成本优势,推动了中小卫星商业化应用发展。

Basic Information
目录编号:
68506
目录名称:
AEPEX
国际标识:
2026-067CU
轨道中心:
EARTH
卫星名称:
AEPEX
卫星全名:
AEPEX
卫星状态:
在轨 (已飞行158 天)
发射日期:
2026-03-30 UTC
国别 :
美国 (US)
星等 :
--
Orbit Information
数据来源 国际轨道数据
星历时间: 2026-09-04T09:59:23+0800
14小时前
查看轨道信息
半长轴: 6883.731km
偏心率: 0.0003808
轨道倾角: 97.458°
近地点辐角 139.076°
升交点赤经 204.570°
平近点角 221.076°
近地点: 502.972km
远地点: 508.216km
周期: 94.732分钟
每日圈数: 15.20082
Detailed Information
使用方式:
暂无
2D Orbit Map
3D Orbit Map
Orbit Altitude Analysis Chart
Orbit Inclination Analysis Chart
Orbit Comprehensive Analysis Chart
View Comprehensive Chart
Conjunction Data List
Event ID Objects TCA Miss Dist (km) Collision Risk Probability Collision Risk Index (CRI) Action
CDM_260903-072103-381106-850624
AEPEX (68506)
2026-09-03T
07:21:28+0000
1.576 km
极远距离
4.794468E-6 低风险 0.49
CDM_260903-142906-669806-850623
AEPEX (68506)
2026-09-03T
14:29:05+0000
2.677 km
极远距离
1.430004E-6 低风险 0.38